Weather in Pryazha

Russia / Republic of Karelia     61°41′34″N   33°37′10″E
temp.,
°C
wind,
m/s
gust,
m/s
humid.,
%
clouds,
%
prec.,
mm/h
press.,
hPa
HPBL,
m
3 march, wed
wed300:00−6w39927 0.0 1012219
03:00−5w399618 0.0 1012339
06:00−4w4119396 0.0 1009545
09:00−4w4129190 0.0 1009553
12:00−1w499044 0.0 1006500
15:00−1w598972 0.1 1004764
18:00−2w41194100 0.3 999973
21:00−2wnw41286100 2.5 999954
4 march, thu
thu400:00−4nw5128996 0.0 999753
03:00−7nw399492 0.1 1000324
06:00−9nw239795 0.1 100164
09:00−10nnw239789 0.1 100187
12:00−6nnw238891 0.0 1002345
15:00−4nw238694 0.0 1002618
18:00−7nw229397 0.1 100227
21:00−9nw269595 0.1 1003174
5 march, fri
fri500:00−12nw229682 0.0 100326
03:00−13wnw229772 0.1 100552
06:00−11nnw269798 0.3 1006219
09:00−11n279499 0.4 1008367
12:00−9n247877 0.0 1010523
15:00−8nw237767 0.0 1011868
18:00−9w2490100 0.0 101295
21:00−13wnw239688 0.0 101348
6 march, sat
sat600:00−14w239658 0.0 101360
03:00−15w239649 0.0 101335
06:00−16wsw23970 0.0 101232
09:00−14sw269624 0.0 1011176
12:00−7sw488791 0.0 1008657
15:00−7ssw5108895 0.1 1004690
18:00−6ssw61292100 0.6 9971043
21:00−5ssw61392100 1.8 991988
7 march, sun
sun700:00−4ssw51195100 1.0 986500
03:00−4ssw2597100 1.3 982211
06:00−4ese3796100 0.3 978277
09:00−5w2496100 3.5 978256
12:00−5ne61294100 3.1 980787
15:00−7nne81489100 4.0 984972
18:00−10nne71586100 0.3 9901004
21:00−14n71485100 0.5 995892